Location: Capelle
(50.3413°N, 1.9974°E)
Time: 00:00:44
(UTC+00:00)

Cosmos 1805 Rocket - Pass Details

Date: 12 January 2026
Orbit: 599 x 623 km, 82.5° (Epoch: 9 February)

Event Time Altitude Azimuth Distance (km) Brightness Sun altitude
Rises 16:59:39 0° 346° (NNW) 2,896 6.9 -7.3°
Reaches altitude 10° 17:01:55 10° 343° (NNW) 1,982 6.1 -7.6°
Maximum altitude 17:06:13 58° 264° (W) 716 4.3 -8.3°
Drops below altitude 10° 17:10:27 10° 186° (S) 1,950 6.5 -8.9°
Sets 17:12:40 0° 183° (S) 2,845 7.3 -9.2°
